When you browse on this site, cookies collect data to enhance your experience and personalize the content and advertising you see.
Visit our Privacy Policy to learn more. By continuing to use the site, you agree to this use of cookies and data.

Hourly Weather Jumprava

Today, 2 July, Thursday

Time Temperature Precipitation Wind Pressure Humidity
00:00 +13°C° 0 mm 2 mps 748 mmHg 93%
01:00 +12°C° 0 mm 2 mps 748 mmHg 95%
02:00 +12°C° 0 mm 2 mps 748 mmHg 96%
03:00 +12°C° 0 mm 2 mps 748 mmHg 95%
04:00 +12°C° 0 mm 2 mps 748 mmHg 94%
05:00 +12°C° 0 mm 2 mps 748 mmHg 94%
06:00 +14°C° 0 mm 2 mps 748 mmHg 86%
07:00 +15°C° 0 mm 2 mps 748 mmHg 78%
08:00 +17°C° 0 mm 2 mps 749 mmHg 69%
09:00 +19°C° 0 mm 2 mps 748 mmHg 66%
10:00 +20°C° 0 mm 2 mps 748 mmHg 62%
11:00 +22°C° 0 mm 3 mps 748 mmHg 58%
12:00 +22°C° 0.5 mm 3 mps 748 mmHg 67%
13:00 +22°C° 0.5 mm 3 mps 748 mmHg 75%
14:00 +21°C° 0 mm 3 mps 748 mmHg 86%
15:00 +21°C° 0.9 mm 3 mps 748 mmHg 87%
16:00 +21°C° 0.9 mm 4 mps 748 mmHg 89%
17:00 +21°C° 0.9 mm 4 mps 748 mmHg 90%
18:00 +20°C° 0.2 mm 4 mps 748 mmHg 89%
19:00 +19°C° 0.2 mm 3 mps 748 mmHg 88%
20:00 +18°C° 0.2 mm 3 mps 749 mmHg 87%
21:00 +17°C° 0 mm 3 mps 749 mmHg 89%
22:00 +16°C° 0 mm 3 mps 749 mmHg 92%
23:00 +13°C° 0 mm 3 mps 749 mmHg 94%

Tomorrow, 3 July, Friday

Time Temperature Precipitation Wind Pressure Humidity
00:00 +14°C° 0 mm 2 mps 750 mmHg 95%
01:00 +13°C° 0 mm 2 mps 750 mmHg 97%
02:00 +13°C° 0 mm 2 mps 751 mmHg 98%
03:00 +13°C° 0 mm 2 mps 751 mmHg 98%
04:00 +12°C° 0 mm 2 mps 751 mmHg 97%
05:00 +12°C° 0 mm 2 mps 751 mmHg 97%
06:00 +14°C° 0 mm 2 mps 751 mmHg 92%
07:00 +15°C° 0 mm 2 mps 751 mmHg 87%
08:00 +17°C° 0 mm 2 mps 752 mmHg 81%
09:00 +19°C° 0 mm 2 mps 752 mmHg 73%
10:00 +20°C° 0 mm 3 mps 752 mmHg 66%
11:00 +22°C° 0 mm 3 mps 752 mmHg 58%
12:00 +22°C° 0 mm 3 mps 752 mmHg 56%
13:00 +24°C° 0 mm 3 mps 752 mmHg 54%
14:00 +24°C° 0 mm 2 mps 752 mmHg 52%
15:00 +22°C° 0.3 mm 3 mps 752 mmHg 61%
16:00 +21°C° 0.3 mm 3 mps 752 mmHg 70%
17:00 +20°C° 0.3 mm 3 mps 752 mmHg 79%
18:00 +19°C° 0.2 mm 2 mps 752 mmHg 84%
19:00 +19°C° 0.2 mm 1 mps 752 mmHg 89%
20:00 +16°C° 0.2 mm 0 mps 752 mmHg 93%
21:00 +15°C° 0 mm 0 mps 752 mmHg 94%
22:00 +14°C° 0 mm 0 mps 752 mmHg 95%
23:00 +14°C° 0 mm 1 mps 752 mmHg 96%

Day after tomorrow, 4 July, Saturday

Time Temperature Precipitation Wind Pressure Humidity
00:00 +14°C° 0 mm 1 mps 753 mmHg 96%
01:00 +13°C° 0 mm 1 mps 753 mmHg 96%
02:00 +13°C° 0 mm 1 mps 753 mmHg 96%
03:00 +12°C° 0 mm 1 mps 753 mmHg 96%
04:00 +12°C° 0 mm 1 mps 753 mmHg 96%
05:00 +12°C° 0 mm 1 mps 753 mmHg 96%
06:00 +14°C° 0 mm 2 mps 753 mmHg 90%
07:00 +15°C° 0 mm 2 mps 753 mmHg 85%
08:00 +17°C° 0 mm 3 mps 753 mmHg 79%
09:00 +18°C° 0 mm 3 mps 753 mmHg 72%
10:00 +20°C° 0 mm 3 mps 753 mmHg 64%
11:00 +21°C° 0 mm 4 mps 753 mmHg 57%
12:00 +21°C° 0.1 mm 4 mps 753 mmHg 61%
13:00 +21°C° 0.1 mm 4 mps 753 mmHg 65%
14:00 +21°C° 0.1 mm 5 mps 753 mmHg 70%
15:00 +21°C° 0.2 mm 5 mps 752 mmHg 72%
16:00 +21°C° 0.2 mm 4 mps 752 mmHg 74%
17:00 +21°C° 0.2 mm 4 mps 752 mmHg 76%
18:00 +20°C° 0.1 mm 4 mps 752 mmHg 77%
19:00 +19°C° 0.1 mm 3 mps 752 mmHg 79%
20:00 +18°C° 0.1 mm 3 mps 752 mmHg 80%
21:00 +17°C° 0 mm 3 mps 752 mmHg 82%
22:00 +17°C° 0 mm 3 mps 752 mmHg 84%
23:00 +16°C° 0 mm 3 mps 752 mmHg 87%

5 July, Sunday

Time Temperature Precipitation Wind Pressure Humidity
00:00 +15°C° 0 mm 2 mps 752 mmHg 90%
01:00 +15°C° 0 mm 2 mps 752 mmHg 94%
02:00 +14°C° 0 mm 2 mps 752 mmHg 97%
03:00 +14°C° 0 mm 2 mps 752 mmHg 97%
04:00 +14°C° 0 mm 2 mps 752 mmHg 96%
05:00 +14°C° 0 mm 2 mps 752 mmHg 95%
06:00 +15°C° 0 mm 2 mps 751 mmHg 91%
07:00 +17°C° 0 mm 3 mps 751 mmHg 86%
08:00 +18°C° 0 mm 3 mps 751 mmHg 81%
09:00 +19°C° 0 mm 3 mps 751 mmHg 77%
10:00 +20°C° 0 mm 4 mps 750 mmHg 73%
11:00 +21°C° 0 mm 5 mps 750 mmHg 69%
12:00 +20°C° 0.4 mm 5 mps 750 mmHg 77%
13:00 +19°C° 0.4 mm 5 mps 749 mmHg 86%
14:00 +17°C° 0.4 mm 4 mps 749 mmHg 95%
15:00 +17°C° 0.1 mm 4 mps 749 mmHg 94%
16:00 +17°C° 0.1 mm 4 mps 749 mmHg 94%
17:00 +16°C° 0.1 mm 5 mps 748 mmHg 93%
18:00 +18°C° 0 mm 4 mps 748 mmHg 92%
19:00 +18°C° 0 mm 4 mps 748 mmHg 91%
20:00 +18°C° 0 mm 4 mps 748 mmHg 90%
21:00 +18°C° 0 mm 4 mps 748 mmHg 91%
22:00 +17°C° 0 mm 4 mps 747 mmHg 93%
23:00 +17°C° 0 mm 4 mps 747 mmHg 94%

6 July, Monday

Time Temperature Precipitation Wind Pressure Humidity
00:00 +16°C° 0.1 mm 5 mps 747 mmHg 93%
01:00 +17°C° 0.1 mm 5 mps 746 mmHg 92%
02:00 +17°C° 0.1 mm 6 mps 745 mmHg 91%
03:00 +17°C° 0.6 mm 6 mps 745 mmHg 92%
04:00 +17°C° 0.6 mm 6 mps 745 mmHg 94%
05:00 +17°C° 0.6 mm 6 mps 745 mmHg 95%
06:00 +17°C° 0.1 mm 6 mps 745 mmHg 89%
07:00 +19°C° 0.1 mm 6 mps 745 mmHg 82%
08:00 +18°C° 0.1 mm 7 mps 745 mmHg 76%
09:00 +20°C° 0 mm 7 mps 746 mmHg 70%
10:00 +20°C° 0 mm 7 mps 746 mmHg 64%
11:00 +21°C° 0 mm 8 mps 746 mmHg 58%
12:00 +21°C° 0 mm 7 mps 747 mmHg 56%
13:00 +21°C° 0 mm 7 mps 747 mmHg 55%
14:00 +21°C° 0 mm 7 mps 747 mmHg 53%
15:00 +21°C° 0 mm 7 mps 747 mmHg 53%
16:00 +21°C° 0 mm 6 mps 747 mmHg 53%
17:00 +21°C° 0 mm 6 mps 748 mmHg 53%
18:00 +20°C° 0 mm 5 mps 747 mmHg 59%
19:00 +18°C° 0 mm 4 mps 747 mmHg 66%
20:00 +17°C° 0 mm 2 mps 747 mmHg 73%
21:00 +17°C° 0 mm 3 mps 747 mmHg 73%
22:00 +17°C° 0 mm 3 mps 748 mmHg 73%
23:00 +17°C° 0 mm 3 mps 748 mmHg 73%

7 July, Tuesday

Time Temperature Precipitation Wind Pressure Humidity
00:00 +16°C° 0 mm 3 mps 748 mmHg 74%
01:00 +14°C° 0 mm 3 mps 748 mmHg 76%
02:00 +13°C° 0 mm 3 mps 748 mmHg 78%
03:00 +12°C° 0 mm 3 mps 749 mmHg 81%
04:00 +12°C° 0 mm 3 mps 749 mmHg 85%
05:00 +11°C° 0 mm 3 mps 749 mmHg 89%
06:00 +13°C° 0 mm 3 mps 750 mmHg 82%
07:00 +14°C° 0 mm 4 mps 750 mmHg 76%
08:00 +17°C° 0 mm 4 mps 750 mmHg 70%
09:00 +17°C° 0 mm 5 mps 750 mmHg 65%
10:00 +19°C° 0 mm 5 mps 751 mmHg 60%
11:00 +19°C° 0 mm 5 mps 751 mmHg 55%
12:00 +20°C° 0 mm 5 mps 751 mmHg 53%
13:00 +20°C° 0 mm 5 mps 751 mmHg 52%
14:00 +20°C° 0 mm 5 mps 751 mmHg 50%
15:00 +20°C° 0 mm 5 mps 751 mmHg 51%
16:00 +19°C° 0 mm 5 mps 751 mmHg 53%
17:00 +19°C° 0 mm 4 mps 751 mmHg 54%
18:00 +17°C° 0 mm 4 mps 751 mmHg 60%
19:00 +16°C° 0 mm 3 mps 751 mmHg 66%
20:00 +14°C° 0 mm 3 mps 751 mmHg 72%
21:00 +14°C° 0 mm 2 mps 751 mmHg 75%
22:00 +13°C° 0 mm 2 mps 751 mmHg 78%
23:00 +12°C° 0 mm 2 mps 751 mmHg 82%
Show more